Tracking 28790 objects as of 19-Apr-2024
HD Live streaming from Space Station
objects crossing your sky now

CZ-2C DEB

Track CZ-2C DEB now!
10-day predictions


NORAD ID: 40265
Int'l Code: 2014-059E
Perigee: 687.4 km
Apogee: 945.5 km
Inclination: 97.9 °
Period: 101.1 minutes
Semi major axis: 7187 km
RCS: Unknown
Launch date: September 28, 2014
Source: People's Republic of China (PRC)
Launch site: Jiuquan Satellite Launch Center, China (JSC)

Note: This is SATELLITE DEBRIS
Your satellite tracking list
Your tracking list is empty




NASA's NSSDC Master Catalog

Two Line Element Set (TLE):
1 40265U 14059E   24109.87523184  .00004608  00000-0  16865-2 0  9996
2 40265  97.9170 241.9314 0179577 316.2194  42.4866 14.24760985495394
Source of the keplerian elements: AFSPC